This is the latest recevied weather packets stored in our database for station/object KA1AL. If no packets are shown the sender has not sent any weather packets the latest 10 day(s).
| Time | Temp. | Humidity | Pressure | Rain* | Wind** | Luminosity | Snow |
|---|---|---|---|---|---|---|---|
| 1778088926 | 12.22° C | 99% | 1006.5 hPa | 1.27 mm | - | 53 W/m² | - |
| 1778088622 | 12.22° C | 99% | 1006.5 hPa | 3.05 mm | - | 64 W/m² | - |
| 1778088320 | 12.22° C | 99% | 1006.6 hPa | 1.78 mm | - | 92 W/m² | - |
| 1778088016 | 12.78° C | 99% | 1006.5 hPa | 3.05 mm | - | 106 W/m² | - |
| 1778087714 | 12.22° C | 99% | 1006.6 hPa | 1.27 mm | - | 134 W/m² | - |
| 1778087411 | 12.22° C | 99% | 1006.8 hPa | 1.78 mm | - | 146 W/m² | - |
| 1778087109 | 12.22° C | 99% | 1006.7 hPa | 3.05 mm | - | 110 W/m² | - |
| 1778086806 | 12.22° C | 99% | 1007.2 hPa | 1.27 mm | - | 98 W/m² | - |
| 1778086504 | 12.22° C | 99% | 1007.5 hPa | 1.78 mm | - | 105 W/m² | - |
| 1778086200 | 12.22° C | 99% | 1007.6 hPa | 1.78 mm | - | 93 W/m² | - |
| 1778085897 | 12.22° C | 99% | 1007.9 hPa | 0 mm | - | 67 W/m² | - |
| 1778085595 | 12.22° C | 99% | 1008.1 hPa | 1.27 mm | - | 71 W/m² | - |
| 1778085289 | 12.22° C | 99% | 1007.9 hPa | 1.27 mm | - | 81 W/m² | - |
| 1778084984 | 12.22° C | 99% | 1008.2 hPa | 0 mm | - | 80 W/m² | - |
| 1778084683 | 12.22° C | 99% | 1008 hPa | 3.05 mm | - | 70 W/m² | - |
| 1778084380 | 12.22° C | 99% | 1008.1 hPa | 3.05 mm | - | 78 W/m² | - |
| 1778084078 | 12.22° C | 99% | 1008 hPa | 3.05 mm | - | 101 W/m² | - |
| 1778083775 | 12.78° C | 99% | 1008.3 hPa | 1.78 mm | - | 72 W/m² | - |
| 1778083472 | 12.78° C | 99% | 1008 hPa | 0 mm | - | 72 W/m² | - |
| 1778083170 | 12.78° C | 99% | 1008 hPa | 0 mm | - | 61 W/m² | - |
| 1778082867 | 12.78° C | 99% | 1007.8 hPa | 0 mm | - | 75 W/m² | - |
| 1778081748 | 12.78° C | 97% | 1007.9 hPa | 0 mm | - | 78 W/m² | - |
| 1778081446 | 12.78° C | 97% | 1008.2 hPa | 0 mm | - | 78 W/m² | - |
| 1778081143 | 12.78° C | 96% | 1008.1 hPa | 0 mm | - | 104 W/m² | - |
| 1778080841 | 12.78° C | 96% | 1008.1 hPa | 0 mm | - | 104 W/m² | - |
* Rain latest hour (hover to see other rain measurements)
** Current wind speed in m/s (hover to see current wind gust speed)